| time (UTC) | temp F | wind direction | speed knots | gust knots | rain 1hr in | rain 24hr in | rain mn in | humidity % | barometer mb |
| 20260510204004 | 66 | 229 | 5.2 | 11.3 | 0.00 | 0.09 | 0.00 | 60 | 1011.7 |
| 20260510202504 | 68 | 256 | 1.7 | 8.7 | 0.00 | 0.12 | 0.00 | 52 | 1011.4 |
| 20260510202007 | 69 | 289 | 2.6 | 8.7 | 0.00 | 0.12 | 0.00 | 51 | 1011.3 |
| 20260510201514 | 69 | 278 | 2.6 | 9.6 | 0.00 | 0.12 | 0.00 | 50 | 1011.1 |
| 20260510201009 | 69 | 309 | 2.6 | 9.6 | 0.00 | 0.13 | 0.00 | 48 | 1011.1 |
| 20260510200509 | 70 | 285 | 4.3 | 12.2 | 0.00 | 0.14 | 0.00 | 48 | 1011.0 |
| 20260510200004 | 70 | 180 | 2.6 | 12.2 | 0.00 | 0.14 | 0.00 | 48 | 1011.1 |
| 20260510195001 | 69 | 197 | 1.7 | 5.2 | 0.00 | 0.17 | 0.00 | 54 | 1011.1 |
| 20260510194504 | 69 | 139 | 0.9 | 7.8 | 0.00 | 0.18 | 0.00 | 55 | 1011.1 |
| 20260510194006 | 69 | 274 | 1.7 | 8.7 | 0.00 | 0.18 | 0.00 | 53 | 1011.1 |
| 20260510193503 | 69 | 28 | 1.7 | 8.7 | 0.00 | 0.19 | 0.00 | 55 | 1011.1 |
| 20260510192008 | 69 | 102 | 1.7 | 4.3 | 0.00 | 0.21 | 0.00 | 57 | 1011.2 |
| 20260510191008 | 69 | 311 | 0.9 | 7.0 | 0.00 | 0.21 | 0.00 | 57 | 1011.2 |
| 20260510190506 | 69 | 121 | 0.9 | 7.0 | 0.00 | 0.21 | 0.00 | 59 | 1011.2 |
| 20260510190032 | 69 | 190 | 1.7 | 6.1 | 0.00 | 0.21 | 0.00 | 58 | 1011.2 |
| 20260510185512 | 69 | 5 | 0.9 | 3.5 | 0.00 | 0.21 | 0.00 | 58 | 1011.3 |
| 20260510185008 | 69 | 271 | 0.9 | 5.2 | 0.00 | 0.21 | 0.00 | 59 | 1011.3 |
| 20260510184505 | 69 | 281 | 2.6 | 7.0 | 0.00 | 0.21 | 0.00 | 60 | 1011.2 |
| 20260510184005 | 69 | 136 | 0.0 | 7.0 | 0.00 | 0.21 | 0.00 | 63 | 1011.3 |
| 20260510183506 | 70 | 141 | 0.9 | 7.0 | 0.00 | 0.21 | 0.00 | 60 | 1011.3 |
| 20260510183007 | 70 | 253 | 2.6 | 7.0 | 0.00 | 0.21 | 0.00 | 59 | 1011.3 |
| 20260510182506 | 71 | 25 | 1.7 | 5.2 | 0.00 | 0.21 | 0.00 | 61 | 1011.4 |
| 20260510181511 | 69 | 193 | 4.3 | 8.7 | 0.00 | 0.21 | 0.00 | 68 | 1011.1 |
| 20260510180508 | 68 | 156 | 2.6 | 7.0 | 0.00 | 0.21 | 0.00 | 69 | 1011.2 |
| 20260510180018 | 67 | 149 | 0.0 | 4.3 | 0.00 | 0.21 | 0.00 | 73 | 1011.2 |
| 20260510175508 | 67 | 78 | 1.7 | 4.3 | 0.00 | 0.21 | 0.00 | 71 | 1011.2 |
| 20260510175014 | 66 | 94 | 1.7 | 4.3 | 0.00 | 0.21 | 0.00 | 72 | 1011.1 |
| 20260510174521 | 66 | 253 | 0.9 | 4.3 | 0.00 | 0.21 | 0.00 | 72 | 1011.2 |
| 20260510174010 | 66 | 327 | 0.9 | 4.3 | 0.00 | 0.21 | 0.00 | 73 | 1011.3 |
| 20260510173505 | 66 | 166 | 0.9 | 3.5 | 0.00 | 0.21 | 0.00 | 72 | 1011.4 |
| 20260510173006 | 66 | 82 | 1.7 | 5.2 | 0.00 | 0.21 | 0.00 | 73 | 1011.3 |
| 20260510172503 | 66 | 166 | 1.7 | 5.2 | 0.00 | 0.21 | 0.00 | 72 | 1011.3 |
| 20260510172004 | 67 | 254 | 1.7 | 7.8 | 0.00 | 0.21 | 0.00 | 72 | 1011.3 |
| 20260510171510 | 67 | 298 | 2.6 | 6.1 | 0.00 | 0.21 | 0.00 | 70 | 1011.3 |
| 20260510171006 | 67 | 296 | 1.7 | 6.1 | 0.00 | 0.22 | 0.00 | 71 | 1011.4 |
| 20260510170015 | 67 | 119 | 0.9 | 5.2 | 0.00 | 0.22 | 0.00 | 72 | 1011.4 |
| 20260510165511 | 67 | 296 | 1.7 | 5.2 | 0.00 | 0.22 | 0.00 | 70 | 1011.4 |
| 20260510165006 | 67 | 184 | 2.6 | 7.0 | 0.00 | 0.22 | 0.00 | 70 | 1011.5 |
| 20260510164520 | 67 | 126 | 1.7 | 7.0 | 0.00 | 0.22 | 0.00 | 70 | 1011.7 |
| 20260510164009 | 66 | 142 | 1.7 | 7.0 | 0.00 | 0.22 | 0.00 | 73 | 1011.7 |
| 20260510163507 | 66 | 184 | 1.7 | 6.1 | 0.00 | 0.23 | 0.00 | 71 | 1011.7 |
| 20260510163023 | 67 | 182 | 2.6 | 6.1 | 0.00 | 0.23 | 0.00 | 74 | 1011.7 |
| 20260510162510 | 66 | 42 | 0.9 | 5.2 | 0.00 | 0.23 | 0.00 | 72 | 1011.8 |
| 20260510161512 | 67 | 279 | 0.9 | 5.2 | 0.00 | 0.24 | 0.00 | 75 | 1011.8 |
| 20260510161006 | 66 | 76 | 0.9 | 5.2 | 0.00 | 0.24 | 0.00 | 76 | 1011.8 |
| 20260510160504 | 65 | 327 | 0.9 | 5.2 | 0.00 | 0.24 | 0.00 | 72 | 1011.9 |
| 20260510160012 | 65 | 85 | 0.9 | 7.0 | 0.00 | 0.24 | 0.00 | 74 | 1012.0 |
| 20260510155513 | 64 | 120 | 2.6 | 7.0 | 0.00 | 0.24 | 0.00 | 76 | 1012.0 |
| 20260510155007 | 64 | 173 | 1.7 | 6.1 | 0.00 | 0.24 | 0.00 | 75 | 1012.1 |
| 20260510154514 | 64 | 214 | 1.7 | 6.1 | 0.00 | 0.24 | 0.00 | 74 | 1012.2 |
| 20260510154010 | 63 | 5 | 1.7 | 6.1 | 0.00 | 0.24 | 0.00 | 76 | 1012.2 |
| 20260510153508 | 63 | 130 | 0.9 | 3.5 | 0.00 | 0.24 | 0.00 | 79 | 1012.3 |
| 20260510153038 | 62 | 194 | 0.9 | 6.1 | 0.00 | 0.24 | 0.00 | 78 | 1012.4 |
| 20260510152510 | 62 | 340 | 0.9 | 6.1 | 0.00 | 0.24 | 0.00 | 79 | 1012.4 |
| 20260510152011 | 61 | 61 | 0.9 | 5.2 | 0.00 | 0.24 | 0.00 | 80 | 1012.4 |
| 20260510151523 | 62 | 13 | 0.9 | 7.8 | 0.00 | 0.24 | 0.00 | 77 | 1012.5 |
| 20260510151003 | 61 | 169 | 1.7 | 7.8 | 0.00 | 0.24 | 0.00 | 80 | 1012.6 |
| 20260510150011 | 61 | 22 | 0.9 | 6.1 | 0.00 | 0.24 | 0.00 | 83 | 1012.5 |
| 20260510145506 | 60 | 27 | 1.7 | 5.2 | 0.00 | 0.24 | 0.00 | 81 | 1012.5 |
| 20260510145011 | 60 | 133 | 0.0 | 5.2 | 0.00 | 0.24 | 0.00 | 83 | 1012.4 |
| 20260510144529 | 60 | 152 | 0.9 | 5.2 | 0.00 | 0.24 | 0.00 | 84 | 1012.4 |
| 20260510144007 | 59 | 122 | 1.7 | 5.2 | 0.00 | 0.24 | 0.00 | 85 | 1012.4 |
| 20260510143508 | 58 | 267 | 1.7 | 5.2 | 0.00 | 0.24 | 0.00 | 87 | 1012.5 |
| 20260510143017 | 58 | 148 | 0.9 | 4.3 | 0.00 | 0.24 | 0.00 | 88 | 1012.5 |
| 20260510142516 | 57 | 165 | 2.6 | 5.2 | 0.00 | 0.24 | 0.00 | 89 | 1012.6 |
| 20260510142009 | 56 | 335 | 0.9 | 5.2 | 0.00 | 0.24 | 0.00 | 89 | 1012.7 |
| 20260510141522 | 56 | 201 | 1.7 | 4.3 | 0.00 | 0.24 | 0.00 | 89 | 1012.7 |
| 20260510141011 | 56 | 36 | 1.7 | 3.5 | 0.00 | 0.24 | 0.00 | 90 | 1012.6 |
| 20260510140510 | 55 | 92 | 0.9 | 3.5 | 0.00 | 0.24 | 0.00 | 91 | 1012.6 |
| 20260510140024 | 55 | 138 | 0.0 | 3.5 | 0.00 | 0.24 | 0.00 | 92 | 1012.6 |
| 20260510134513 | 54 | 159 | 1.7 | 3.5 | 0.00 | 0.24 | 0.00 | 93 | 1012.5 |
| 20260510134009 | 54 | 116 | 0.0 | 2.6 | 0.00 | 0.24 | 0.00 | 93 | 1012.4 |
| 20260510133507 | 54 | 288 | 0.9 | 3.5 | 0.00 | 0.24 | 0.00 | 94 | 1012.4 |
| 20260510133016 | 53 | 84 | 0.0 | 3.5 | 0.00 | 0.25 | 0.00 | 94 | 1012.5 |
| 20260510132506 | 53 | 163 | 0.0 | 3.5 | 0.00 | 0.25 | 0.00 | 94 | 1012.4 |
| 20260510132009 | 53 | 161 | 0.9 | 2.6 | 0.00 | 0.25 | 0.00 | 95 | 1012.5 |
| 20260510131522 | 53 | 123 | 0.0 | 2.6 | 0.00 | 0.25 | 0.00 | 95 | 1012.6 |
| 20260510131013 | 52 | 144 | 0.0 | 1.7 | 0.00 | 0.25 | 0.00 | 95 | 1012.5 |
| 20260510130509 | 52 | 28 | 0.0 | 1.7 | 0.00 | 0.25 | 0.00 | 95 | 1012.6 |
| 20260510130024 | 53 | 129 | 0.9 | 1.7 | 0.00 | 0.25 | 0.00 | 96 | 1012.4 |
| 20260510125509 | 52 | 172 | 0.0 | 1.7 | 0.00 | 0.25 | 0.00 | 96 | 1012.4 |
| 20260510125011 | 52 | 96 | 0.0 | 1.7 | 0.00 | 0.25 | 0.00 | 96 | 1012.3 |
| 20260510124525 | 52 | 118 | 0.0 | 1.7 | 0.00 | 0.25 | 0.00 | 95 | 1012.3 |
| 20260510123014 | 53 | 218 | 0.9 | 1.7 | 0.00 | 0.25 | 0.00 | 97 | 1012.1 |
| 20260510122508 | 52 | 67 | 0.0 | 1.7 | 0.00 | 0.25 | 0.00 | 97 | 1012.1 |
| 20260510122007 | 52 | 52 | 0.0 | 1.7 | 0.00 | 0.25 | 0.00 | 97 | 1012.2 |
| 20260510121518 | 52 | 123 | 0.0 | 1.7 | 0.00 | 0.25 | 0.00 | 97 | 1012.2 |
| 20260510121009 | 52 | 179 | 0.0 | 1.7 | 0.00 | 0.25 | 0.00 | 97 | 1012.3 |
| 20260510120507 | 51 | 145 | 0.0 | 1.7 | 0.00 | 0.25 | 0.00 | 97 | 1012.3 |
| 20260510120024 | 52 | 119 | 0.0 | 2.6 | 0.00 | 0.25 | 0.00 | 97 | 1012.3 |
| 20260510115512 | 52 | 90 | 0.9 | 2.6 | 0.00 | 0.25 | 0.00 | 97 | 1012.2 |
| 20260510115010 | 51 | 50 | 0.9 | 2.6 | 0.00 | 0.26 | 0.00 | 97 | 1012.2 |
| 20260510114526 | 51 | 212 | 0.0 | 1.7 | 0.00 | 0.26 | 0.00 | 97 | 1012.1 |
| 20260510114011 | 51 | 133 | 0.0 | 1.7 | 0.00 | 0.26 | 0.00 | 97 | 1012.0 |
| 20260510113507 | 51 | 130 | 0.0 | 1.7 | 0.00 | 0.26 | 0.00 | 97 | 1012.0 |
| 20260510113015 | 51 | 151 | 0.0 | 1.7 | 0.00 | 0.26 | 0.00 | 97 | 1012.0 |
| 20260510112506 | 51 | 159 | 0.0 | 1.7 | 0.00 | 0.26 | 0.00 | 97 | 1012.0 |
| 20260510112008 | 50 | 174 | 0.0 | 1.7 | 0.00 | 0.26 | 0.00 | 97 | 1012.0 |
| 20260510111529 | 50 | 198 | 0.0 | 1.7 | 0.00 | 0.27 | 0.00 | 98 | 1011.9 |
| 20260510111013 | 50 | 223 | 0.0 | 1.7 | 0.00 | 0.27 | 0.00 | 98 | 1012.0 |
| 20260510110506 | 50 | 70 | 0.0 | 1.7 | 0.00 | 0.27 | 0.00 | 98 | 1011.8 |
| 20260510110025 | 50 | 182 | 0.0 | 1.7 | 0.00 | 0.28 | 0.00 | 98 | 1011.9 |
| 20260510105509 | 50 | 328 | 0.0 | 1.7 | 0.00 | 0.28 | 0.00 | 98 | 1011.7 |
| 20260510105008 | 50 | 286 | 0.0 | 1.7 | 0.00 | 0.28 | 0.00 | 98 | 1011.7 |
| 20260510104522 | 50 | 295 | 0.0 | 1.7 | 0.00 | 0.28 | 0.00 | 98 | 1011.6 |
| 20260510104008 | 50 | 222 | 0.0 | 1.7 | 0.00 | 0.29 | 0.00 | 98 | 1011.7 |
| 20260510103507 | 50 | 329 | 0.0 | 2.6 | 0.00 | 0.29 | 0.00 | 98 | 1011.6 |
| 20260510102507 | 50 | 304 | 0.9 | 3.5 | 0.00 | 0.30 | 0.00 | 98 | 1011.5 |
| 20260510102009 | 50 | 128 | 0.9 | 3.5 | 0.00 | 0.30 | 0.00 | 98 | 1011.4 |
| 20260510101514 | 50 | 342 | 0.0 | 3.5 | 0.00 | 0.31 | 0.00 | 98 | 1011.2 |
| 20260510100509 | 50 | 154 | 0.9 | 2.6 | 0.00 | 0.31 | 0.00 | 98 | 1011.2 |
| 20260510100002 | 50 | 143 | 0.0 | 2.6 | 0.00 | 0.31 | 0.00 | 98 | 1011.2 |
| 20260510095504 | 50 | 239 | 0.0 | 4.3 | 0.00 | 0.31 | 0.00 | 98 | 1011.1 |
| 20260510095007 | 49 | 162 | 0.9 | 4.3 | 0.00 | 0.32 | 0.00 | 98 | 1010.8 |
| 20260510094505 | 49 | 121 | 0.9 | 1.7 | 0.00 | 0.32 | 0.00 | 98 | 1010.9 |
| 20260510094003 | 49 | 53 | 0.9 | 2.6 | 0.00 | 0.33 | 0.00 | 98 | 1010.9 |
| 20260510093506 | 49 | 80 | 0.9 | 2.6 | 0.00 | 0.33 | 0.00 | 98 | 1011.1 |
| 20260510093008 | 49 | 181 | 0.9 | 1.7 | 0.00 | 0.34 | 0.00 | 98 | 1011.2 |
| 20260510092506 | 49 | 146 | 0.9 | 1.7 | 0.00 | 0.34 | 0.00 | 98 | 1011.2 |
| 20260510092006 | 49 | 127 | 0.0 | 1.7 | 0.00 | 0.34 | 0.00 | 98 | 1011.1 |
| 20260510091510 | 49 | 222 | 0.0 | 2.6 | 0.00 | 0.34 | 0.00 | 98 | 1011.4 |
| 20260510091006 | 49 | 139 | 0.9 | 3.5 | 0.00 | 0.35 | 0.00 | 98 | 1011.3 |
| 20260510090508 | 49 | 210 | 0.0 | 3.5 | 0.00 | 0.35 | 0.00 | 98 | 1011.4 |
| 20260510090016 | 49 | 143 | 1.7 | 3.5 | 0.00 | 0.36 | 0.00 | 98 | 1011.3 |
| 20260510085511 | 49 | 161 | 0.9 | 2.6 | 0.00 | 0.37 | 0.00 | 98 | 1011.4 |
| 20260510085007 | 49 | 181 | 0.0 | 2.6 | 0.00 | 0.37 | 0.00 | 98 | 1011.4 |
| 20260510084508 | 49 | 142 | 0.0 | 2.6 | 0.00 | 0.38 | 0.00 | 97 | 1011.4 |
| 20260510084004 | 49 | 96 | 0.0 | 1.7 | 0.00 | 0.38 | 0.00 | 98 | 1011.5 |
| 20260510083503 | 49 | 74 | 0.0 | 1.7 | 0.00 | 0.39 | 0.00 | 98 | 1011.6 |
| 20260510083007 | 49 | 74 | 0.0 | 1.7 | 0.00 | 0.39 | 0.00 | 97 | 1011.5 |
| 20260510082504 | 49 | 98 | 0.0 | 1.7 | 0.00 | 0.39 | 0.00 | 98 | 1011.5 |
| 20260510082006 | 49 | 98 | 0.0 | 1.7 | 0.00 | 0.39 | 0.00 | 98 | 1011.4 |
| 20260510081517 | 49 | 94 | 0.0 | 1.7 | 0.00 | 0.39 | 0.00 | 98 | 1011.4 |
| 20260510081006 | 49 | 95 | 0.0 | 1.7 | 0.00 | 0.39 | 0.00 | 98 | 1011.4 |
| 20260510080505 | 49 | 56 | 0.0 | 1.7 | 0.00 | 0.39 | 0.00 | 97 | 1011.5 |
| 20260510080014 | 49 | 31 | 0.0 | 1.7 | 0.00 | 0.39 | 0.00 | 98 | 1011.6 |
| 20260510075506 | 49 | 31 | 0.0 | 1.7 | 0.00 | 0.39 | 0.00 | 97 | 1011.5 |
| 20260510075009 | 49 | 84 | 0.0 | 1.7 | 0.00 | 0.39 | 0.00 | 97 | 1011.5 |
| 20260510074517 | 49 | 115 | 0.0 | 1.7 | 0.00 | 0.39 | 0.00 | 97 | 1011.4 |
| 20260510074009 | 49 | 112 | 0.0 | 0.0 | 0.00 | 0.39 | 0.00 | 97 | 1011.4 |
| 20260510073510 | 49 | 112 | 0.0 | 1.7 | 0.00 | 0.39 | 0.00 | 97 | 1011.3 |
| 20260510072504 | 49 | 94 | 0.0 | 1.7 | 0.00 | 0.39 | 0.00 | 98 | 1011.2 |
| 20260510072005 | 49 | 173 | 0.0 | 2.6 | 0.00 | 0.39 | 0.00 | 97 | 1011.2 |
| 20260510071506 | 49 | 187 | 0.0 | 2.6 | 0.00 | 0.39 | 0.00 | 97 | 1011.2 |
| 20260510071004 | 49 | 167 | 0.0 | 1.7 | 0.00 | 0.39 | 0.00 | 97 | 1011.2 |
| 20260510070506 | 49 | 108 | 0.0 | 1.7 | 0.00 | 0.39 | 0.00 | 97 | 1011.2 |
| 20260510070010 | 49 | 108 | 0.0 | 1.7 | 0.00 | 0.39 | 0.00 | 97 | 1011.2 |
| 20260510065510 | 49 | 103 | 0.0 | 0.9 | 0.00 | 0.39 | 0.00 | 97 | 1011.1 |
| 20260510065011 | 49 | 66 | 0.0 | 0.0 | 0.00 | 0.39 | 0.00 | 97 | 1011.1 |
| 20260510064515 | 49 | 66 | 0.0 | 0.0 | 0.00 | 0.39 | 0.00 | 97 | 1011.4 |
| 20260510064007 | 49 | 66 | 0.0 | 0.0 | 0.00 | 0.39 | 0.00 | 97 | 1011.2 |
| 20260510063507 | 49 | 66 | 0.0 | 0.0 | 0.00 | 0.39 | 0.00 | 97 | 1011.2 |
| 20260510063022 | 49 | 66 | 0.0 | 0.0 | 0.00 | 0.39 | 0.00 | 97 | 1011.2 |
| 20260510062511 | 48 | 66 | 0.0 | 0.0 | 0.00 | 0.39 | 0.00 | 97 | 1011.2 |
| 20260510062012 | 48 | 66 | 0.0 | 1.7 | 0.00 | 0.39 | 0.00 | 97 | 1011.2 |
| 20260510061509 | 48 | 66 | 0.0 | 1.7 | 0.00 | 0.39 | 0.00 | 97 | 1011.0 |
| 20260510061004 | 49 | 66 | 0.0 | 0.9 | 0.00 | 0.39 | 0.00 | 97 | 1010.9 |
| 20260510060505 | 49 | 66 | 0.0 | 1.7 | 0.00 | 0.39 | 0.00 | 97 | 1011.0 |
| 20260510060007 | 49 | 66 | 0.0 | 1.7 | 0.00 | 0.39 | 0.00 | 97 | 1011.0 |
| 20260510055505 | 49 | 66 | 0.0 | 1.7 | 0.00 | 0.39 | 0.00 | 97 | 1010.8 |
| 20260510055008 | 48 | 101 | 0.0 | 1.7 | 0.00 | 0.39 | 0.00 | 97 | 1010.9 |
| 20260510054008 | 49 | 101 | 0.0 | 1.7 | 0.00 | 0.39 | 0.00 | 97 | 1010.9 |
| 20260510053507 | 49 | 101 | 0.0 | 1.7 | 0.00 | 0.39 | 0.00 | 97 | 1010.8 |
| 20260510053017 | 49 | 99 | 0.0 | 1.7 | 0.00 | 0.39 | 0.00 | 97 | 1010.9 |
| 20260510052509 | 49 | 101 | 0.0 | 1.7 | 0.00 | 0.39 | 0.00 | 97 | 1010.9 |
| 20260510052009 | 49 | 56 | 0.0 | 1.7 | 0.00 | 0.39 | 0.00 | 97 | 1010.9 |
| 20260510051525 | 50 | 99 | 0.0 | 1.7 | 0.00 | 0.39 | 0.00 | 97 | 1011.1 |
| 20260510051008 | 50 | 75 | 0.0 | 1.7 | 0.00 | 0.39 | 0.00 | 97 | 1011.1 |
| 20260510050502 | 50 | 69 | 0.0 | 1.7 | 0.00 | 0.39 | 0.00 | 97 | 1011.2 |
| 20260510045505 | 50 | 99 | 0.0 | 1.7 | 0.00 | 0.39 | 0.00 | 97 | 1011.2 |
| 20260510045007 | 50 | 90 | 0.0 | 1.7 | 0.00 | 0.39 | 0.00 | 97 | 1011.2 |
| 20260510044507 | 50 | 123 | 0.0 | 1.7 | 0.00 | 0.39 | 0.00 | 97 | 1011.2 |
| 20260510043508 | 50 | 111 | 0.0 | 1.7 | 0.00 | 0.39 | 0.00 | 97 | 1010.9 |
| 20260510043013 | 50 | 111 | 0.0 | 1.7 | 0.00 | 0.39 | 0.00 | 97 | 1010.8 |
| 20260510042510 | 51 | 111 | 0.0 | 1.7 | 0.00 | 0.39 | 0.00 | 97 | 1010.9 |
| 20260510042009 | 51 | 111 | 0.0 | 1.7 | 0.00 | 0.39 | 0.00 | 97 | 1011.1 |
| 20260510041517 | 51 | 111 | 0.0 | 1.7 | 0.00 | 0.39 | 0.00 | 97 | 1011.0 |
| 20260510041013 | 51 | 111 | 0.0 | 1.7 | 0.00 | 0.39 | 0.00 | 97 | 1011.1 |
| 20260510040509 | 51 | 111 | 0.0 | 0.0 | 0.00 | 0.39 | 0.00 | 97 | 1011.2 |
| 20260510040026 | 51 | 111 | 0.0 | 0.0 | 0.00 | 0.39 | 0.00 | 97 | 1011.4 |
| 20260510035508 | 51 | 111 | 0.0 | 1.7 | 0.00 | 0.39 | 0.39 | 97 | 1011.4 |
| 20260510035005 | 51 | 111 | 0.0 | 1.7 | 0.00 | 0.39 | 0.39 | 97 | 1011.1 |
| 20260510034507 | 51 | 111 | 0.0 | 1.7 | 0.00 | 0.39 | 0.39 | 97 | 1011.1 |
| 20260510034006 | 51 | 111 | 0.0 | 1.7 | 0.00 | 0.39 | 0.39 | 97 | 1011.1 |
| 20260510033512 | 51 | 111 | 0.0 | 1.7 | 0.00 | 0.39 | 0.39 | 97 | 1011.0 |
| 20260510033012 | 50 | 90 | 0.0 | 1.7 | 0.00 | 0.39 | 0.39 | 97 | 1011.1 |
| 20260510032508 | 50 | 88 | 0.0 | 1.7 | 0.00 | 0.39 | 0.39 | 97 | 1011.1 |
| 20260510032009 | 50 | 88 | 0.0 | 1.7 | 0.00 | 0.39 | 0.39 | 97 | 1011.3 |
| 20260510031515 | 50 | 88 | 0.0 | 1.7 | 0.00 | 0.39 | 0.39 | 97 | 1011.3 |
| 20260510031007 | 50 | 88 | 0.0 | 1.7 | 0.00 | 0.39 | 0.39 | 97 | 1011.1 |
| 20260510030506 | 50 | 88 | 0.0 | 1.7 | 0.00 | 0.39 | 0.39 | 97 | 1010.9 |
| 20260510030034 | 50 | 157 | 0.0 | 0.0 | 0.00 | 0.39 | 0.39 | 97 | 1011.0 |
| 20260510025511 | 50 | 157 | 0.0 | 0.0 | 0.00 | 0.39 | 0.39 | 97 | 1011.0 |
| 20260510025008 | 50 | 157 | 0.0 | 0.0 | 0.00 | 0.39 | 0.39 | 97 | 1010.9 |
| 20260510024533 | 50 | 157 | 0.0 | 0.0 | 0.00 | 0.39 | 0.39 | 97 | 1010.9 |
| 20260510024011 | 50 | 157 | 0.0 | 0.0 | 0.00 | 0.39 | 0.39 | 97 | 1010.9 |
| 20260510023505 | 50 | 157 | 0.0 | 0.0 | 0.00 | 0.39 | 0.39 | 97 | 1010.9 |
| 20260510023007 | 50 | 157 | 0.0 | 0.0 | 0.00 | 0.39 | 0.39 | 97 | 1010.9 |
| 20260510022506 | 50 | 157 | 0.0 | 0.0 | 0.00 | 0.39 | 0.39 | 97 | 1011.0 |
| 20260510022010 | 50 | 157 | 0.0 | 0.0 | 0.00 | 0.39 | 0.39 | 97 | 1010.9 |
| 20260510021517 | 50 | 157 | 0.0 | 0.0 | 0.00 | 0.39 | 0.39 | 97 | 1010.9 |
| 20260510021007 | 50 | 157 | 0.0 | 0.0 | 0.00 | 0.39 | 0.39 | 97 | 1010.9 |
| 20260510020507 | 50 | 157 | 0.0 | 2.6 | 0.00 | 0.39 | 0.39 | 97 | 1011.0 |
| 20260510020020 | 50 | 157 | 0.0 | 2.6 | 0.00 | 0.39 | 0.39 | 97 | 1011.2 |
| 20260510015512 | 50 | 53 | 0.0 | 1.7 | 0.00 | 0.39 | 0.39 | 97 | 1011.2 |
| 20260510015012 | 50 | 53 | 0.0 | 0.0 | 0.00 | 0.39 | 0.39 | 97 | 1011.3 |
| 20260510014010 | 50 | 53 | 0.0 | 1.7 | 0.00 | 0.39 | 0.39 | 97 | 1011.5 |
| 20260510013511 | 50 | 53 | 0.0 | 1.7 | 0.00 | 0.39 | 0.39 | 97 | 1011.5 |
| 20260510013026 | 50 | 53 | 0.0 | 0.9 | 0.00 | 0.39 | 0.39 | 97 | 1011.5 |
| 20260510012506 | 50 | 53 | 0.0 | 0.0 | 0.00 | 0.39 | 0.39 | 97 | 1011.5 |
| 20260510012006 | 50 | 53 | 0.0 | 0.0 | 0.00 | 0.39 | 0.39 | 97 | 1011.3 |
| 20260510011514 | 50 | 53 | 0.0 | 1.7 | 0.00 | 0.39 | 0.39 | 97 | 1011.3 |
| 20260510010506 | 50 | 53 | 0.0 | 1.7 | 0.00 | 0.39 | 0.39 | 97 | 1011.1 |
| 20260510010019 | 50 | 53 | 0.0 | 1.7 | 0.00 | 0.39 | 0.39 | 97 | 1011.0 |
| 20260510005511 | 50 | 5 | 0.0 | 1.7 | 0.00 | 0.39 | 0.39 | 97 | 1010.9 |
| 20260510005009 | 50 | 5 | 0.0 | 1.7 | 0.00 | 0.39 | 0.39 | 97 | 1010.9 |
| 20260510004004 | 50 | 332 | 0.0 | 1.7 | 0.00 | 0.39 | 0.39 | 97 | 1010.9 |
| 20260510003503 | 50 | 280 | 0.0 | 1.7 | 0.00 | 0.39 | 0.39 | 97 | 1010.9 |
| 20260510003004 | 50 | 130 | 0.0 | 1.7 | 0.00 | 0.39 | 0.39 | 97 | 1010.8 |
| 20260510002506 | 50 | 78 | 0.0 | 1.7 | 0.00 | 0.39 | 0.39 | 97 | 1010.7 |
| 20260510002014 | 50 | 276 | 0.0 | 1.7 | 0.00 | 0.39 | 0.39 | 97 | 1010.7 |
| 20260510001507 | 50 | 173 | 0.0 | 1.7 | 0.00 | 0.39 | 0.39 | 97 | 1010.6 |
| 20260510001012 | 50 | 159 | 0.0 | 1.7 | 0.00 | 0.39 | 0.39 | 97 | 1010.6 |
| 20260510000507 | 50 | 159 | 0.0 | 1.7 | 0.00 | 0.39 | 0.39 | 97 | 1010.5 |
| 20260510000016 | 50 | 163 | 0.0 | 1.7 | 0.00 | 0.39 | 0.39 | 97 | 1010.6 |
| 20260509235507 | 50 | 136 | 0.0 | 1.7 | 0.00 | 0.39 | 0.39 | 97 | 1010.6 |
| 20260509235013 | 50 | 333 | 0.0 | 1.7 | 0.00 | 0.39 | 0.39 | 97 | 1010.6 |
| 20260509234011 | 49 | 202 | 0.0 | 3.5 | 0.00 | 0.39 | 0.39 | 97 | 1010.6 |
| 20260509233510 | 49 | 121 | 0.9 | 3.5 | 0.00 | 0.39 | 0.39 | 97 | 1010.6 |
| 20260509232504 | 49 | 184 | 0.9 | 6.1 | 0.00 | 0.39 | 0.39 | 97 | 1010.7 |
| 20260509232004 | 49 | 205 | 1.7 | 4.3 | 0.00 | 0.39 | 0.39 | 96 | 1010.6 |
| 20260509231506 | 49 | 137 | 1.7 | 6.1 | 0.01 | 0.39 | 0.39 | 96 | 1010.6 |
| 20260509231007 | 49 | 162 | 0.9 | 6.1 | 0.01 | 0.39 | 0.39 | 96 | 1010.6 |
| 20260509230508 | 49 | 132 | 0.0 | 1.7 | 0.01 | 0.39 | 0.39 | 96 | 1010.7 |
| 20260509230026 | 49 | 55 | 0.9 | 3.5 | 0.02 | 0.39 | 0.39 | 96 | 1010.7 |
| 20260509225507 | 49 | 267 | 0.0 | 3.5 | 0.02 | 0.39 | 0.39 | 96 | 1010.7 |
| 20260509225006 | 49 | 82 | 0.9 | 3.5 | 0.03 | 0.39 | 0.39 | 96 | 1010.7 |
| 20260509224515 | 49 | 81 | 0.0 | 3.5 | 0.04 | 0.39 | 0.39 | 96 | 1010.6 |
| 20260509223510 | 49 | 182 | 0.9 | 5.2 | 0.05 | 0.39 | 0.39 | 96 | 1010.5 |
| 20260509222508 | 49 | 159 | 0.9 | 2.6 | 0.06 | 0.39 | 0.39 | 96 | 1010.6 |
| 20260509222010 | 49 | 138 | 0.9 | 6.1 | 0.06 | 0.39 | 0.39 | 96 | 1010.5 |
| 20260509221526 | 49 | 159 | 0.9 | 6.1 | 0.05 | 0.38 | 0.38 | 96 | 1010.7 |
| 20260509221005 | 49 | 184 | 0.0 | 1.7 | 0.05 | 0.38 | 0.38 | 96 | 1010.7 |
| 20260509220504 | 49 | 280 | 0.0 | 2.6 | 0.06 | 0.38 | 0.38 | 96 | 1010.8 |
| 20260509215511 | 49 | 219 | 0.9 | 2.6 | 0.06 | 0.37 | 0.37 | 96 | 1010.9 |
| 20260509215004 | 49 | 149 | 0.0 | 1.7 | 0.05 | 0.36 | 0.36 | 96 | 1010.8 |
| 20260509214515 | 48 | 102 | 0.0 | 1.7 | 0.05 | 0.35 | 0.35 | 96 | 1010.8 |
| 20260509213508 | 48 | 61 | 0.0 | 1.7 | 0.05 | 0.34 | 0.34 | 96 | 1010.8 |
| 20260509213020 | 48 | 120 | 0.0 | 1.7 | 0.06 | 0.34 | 0.34 | 96 | 1010.9 |
| 20260509212510 | 48 | 88 | 0.0 | 1.7 | 0.06 | 0.33 | 0.33 | 96 | 1011.0 |
| 20260509212010 | 49 | 96 | 0.0 | 1.7 | 0.06 | 0.33 | 0.33 | 96 | 1011.0 |
| 20260509211523 | 48 | 22 | 0.0 | 1.7 | 0.06 | 0.33 | 0.33 | 96 | 1011.0 |
| 20260509211010 | 49 | 22 | 0.0 | 1.7 | 0.07 | 0.33 | 0.33 | 96 | 1011.0 |
| 20260509210512 | 49 | 22 | 0.0 | 1.7 | 0.07 | 0.32 | 0.32 | 96 | 1011.1 |
| 20260509210028 | 49 | 22 | 0.0 | 1.7 | 0.07 | 0.32 | 0.32 | 96 | 1011.3 |
| 20260509205504 | 48 | 22 | 0.0 | 1.7 | 0.08 | 0.31 | 0.31 | 95 | 1011.3 |
| 20260509205006 | 49 | 22 | 0.0 | 1.7 | 0.09 | 0.31 | 0.31 | 96 | 1011.3 |